| time (UTC) | temp F | wind direction | speed MPH | gust MPH | rain 1hr in | rain 24hr in | rain mn in | humidity % | barometer mb |
| 20260504151016 | 64 | 165 | 2.0 | 4.0 | 0.00 | 0.00 | 0.00 | 49 | 1014.8 |
| 20260504141018 | 60 | 116 | 2.0 | 4.0 | 0.00 | 0.00 | 0.00 | 48 | 1015.2 |
| 20260504100139 | 50 | 85 | 1.0 | 2.0 | 0.00 | 0.00 | 0.00 | 59 | 1015.7 |
| 20260504081039 | 51 | 0.0 | 0.0 | 0.00 | 0.00 | 0.00 | 59 | 1016.1 | |
| 20260504050018 | 48 | 0.0 | 0.0 | 0.00 | 0.00 | 0.00 | 64 | 1016.2 | |
| 20260504045018 | 48 | 0.0 | 0.0 | 0.00 | 0.00 | 0.00 | 64 | 1016.2 | |
| 20260504044017 | 48 | 0.0 | 0.0 | 0.00 | 0.00 | 0.00 | 64 | 1016.2 | |
| 20260504043057 | 48 | 0.0 | 0.0 | 0.00 | 0.00 | 0.00 | 63 | 1016.1 | |
| 20260504042017 | 48 | 0.0 | 0.0 | 0.00 | 0.00 | 0.00 | 63 | 1016.0 | |
| 20260504041017 | 48 | 0.0 | 0.0 | 0.00 | 0.00 | 0.00 | 62 | 1015.9 | |
| 20260504040016 | 48 | 0.0 | 0.0 | 0.00 | 0.00 | 0.00 | 60 | 1015.9 | |
| 20260504035016 | 49 | 0.0 | 0.0 | 0.00 | 0.00 | 0.00 | 59 | 1016.1 | |
| 20260504034016 | 49 | 0.0 | 0.0 | 0.00 | 0.00 | 0.00 | 58 | 1016.0 | |
| 20260504033037 | 49 | 0.0 | 0.0 | 0.00 | 0.00 | 0.00 | 57 | 1015.9 | |
| 20260504032037 | 50 | 0.0 | 0.0 | 0.00 | 0.00 | 0.00 | 56 | 1015.9 | |
| 20260504031017 | 50 | 0.0 | 0.0 | 0.00 | 0.00 | 0.00 | 55 | 1015.8 | |
| 20260504030016 | 51 | 0.0 | 0.0 | 0.00 | 0.00 | 0.00 | 52 | 1015.7 | |
| 20260504025017 | 51 | 0.0 | 0.0 | 0.00 | 0.00 | 0.00 | 51 | 1015.6 | |
| 20260504024016 | 51 | 0.0 | 0.0 | 0.00 | 0.00 | 0.00 | 49 | 1015.6 | |
| 20260504023016 | 52 | 0.0 | 0.0 | 0.00 | 0.00 | 0.00 | 49 | 1015.6 | |
| 20260504022017 | 52 | 0.0 | 0.0 | 0.00 | 0.00 | 0.00 | 48 | 1015.6 | |
| 20260504021016 | 53 | 0.0 | 0.0 | 0.00 | 0.00 | 0.00 | 47 | 1015.5 | |
| 20260504020018 | 53 | 0.0 | 0.0 | 0.00 | 0.00 | 0.00 | 44 | 1015.5 | |
| 20260504015018 | 54 | 0.0 | 0.0 | 0.00 | 0.00 | 0.00 | 44 | 1015.4 | |
| 20260504014018 | 54 | 0.0 | 0.0 | 0.00 | 0.00 | 0.00 | 43 | 1015.3 | |
| 20260504013016 | 55 | 0.0 | 0.0 | 0.00 | 0.00 | 0.00 | 41 | 1015.3 | |
| 20260504012018 | 56 | 0.0 | 0.0 | 0.00 | 0.00 | 0.00 | 41 | 1015.2 | |
| 20260504011018 | 57 | 0.0 | 0.0 | 0.00 | 0.00 | 0.00 | 39 | 1015.1 | |
| 20260504010016 | 58 | 0.0 | 0.0 | 0.00 | 0.00 | 0.00 | 37 | 1015.1 | |
| 20260504005038 | 58 | 0.0 | 0.0 | 0.00 | 0.00 | 0.00 | 36 | 1015.1 | |
| 20260504004018 | 59 | 0.0 | 0.0 | 0.00 | 0.00 | 0.00 | 34 | 1015.1 | |
| 20260504003018 | 60 | 0 | 0.0 | 1.0 | 0.00 | 0.00 | 0.00 | 32 | 1015.0 |
| 20260504002017 | 60 | 195 | 1.0 | 3.0 | 0.00 | 0.00 | 0.00 | 30 | 1015.0 |
| 20260504001016 | 61 | 201 | 0.0 | 2.0 | 0.00 | 0.00 | 0.00 | 30 | 1014.9 |
| 20260504000015 | 61 | 232 | 0.0 | 1.0 | 0.00 | 0.00 | 0.00 | 29 | 1014.8 |
| 20260503235017 | 61 | 207 | 1.0 | 2.0 | 0.00 | 0.00 | 0.00 | 29 | 1014.8 |
| 20260503234019 | 62 | 199 | 1.0 | 3.0 | 0.00 | 0.00 | 0.00 | 28 | 1014.7 |
| 20260503233017 | 62 | 257 | 1.0 | 3.0 | 0.00 | 0.00 | 0.00 | 27 | 1014.6 |
| 20260503232017 | 63 | 242 | 1.0 | 3.0 | 0.00 | 0.00 | 0.00 | 27 | 1014.6 |
| 20260503231017 | 63 | 251 | 1.0 | 3.0 | 0.00 | 0.00 | 0.00 | 27 | 1014.6 |
| 20260503230017 | 63 | 261 | 1.0 | 5.0 | 0.00 | 0.00 | 0.00 | 27 | 1014.6 |
| 20260503225016 | 64 | 205 | 2.0 | 9.0 | 0.00 | 0.00 | 0.00 | 26 | 1014.7 |
| 20260503224016 | 65 | 235 | 2.0 | 5.0 | 0.00 | 0.00 | 0.00 | 26 | 1014.7 |
| 20260503223016 | 65 | 205 | 2.0 | 6.0 | 0.00 | 0.00 | 0.00 | 26 | 1014.7 |
| 20260503222016 | 66 | 218 | 3.0 | 6.0 | 0.00 | 0.00 | 0.00 | 25 | 1014.7 |
| 20260503221018 | 66 | 309 | 1.0 | 4.0 | 0.00 | 0.00 | 0.00 | 26 | 1014.8 |
| 20260503220018 | 67 | 254 | 1.0 | 5.0 | 0.00 | 0.00 | 0.00 | 26 | 1014.9 |
| 20260503215017 | 67 | 289 | 2.0 | 6.0 | 0.00 | 0.00 | 0.00 | 25 | 1014.9 |
| 20260503214017 | 67 | 254 | 3.0 | 8.0 | 0.00 | 0.00 | 0.00 | 25 | 1014.9 |
| 20260503213016 | 67 | 295 | 1.0 | 4.0 | 0.00 | 0.00 | 0.00 | 26 | 1014.9 |
| 20260503212016 | 67 | 234 | 3.0 | 9.0 | 0.00 | 0.00 | 0.00 | 26 | 1014.9 |
| 20260503211017 | 67 | 260 | 2.0 | 6.0 | 0.00 | 0.00 | 0.00 | 25 | 1014.9 |
| 20260503210016 | 67 | 323 | 2.0 | 8.0 | 0.00 | 0.00 | 0.00 | 26 | 1014.9 |
| 20260503205016 | 67 | 242 | 2.0 | 7.0 | 0.00 | 0.00 | 0.00 | 26 | 1015.0 |
| 20260503204016 | 67 | 208 | 2.0 | 11.0 | 0.00 | 0.00 | 0.00 | 26 | 1015.1 |
| 20260503203016 | 68 | 195 | 4.0 | 10.0 | 0.00 | 0.00 | 0.00 | 24 | 1015.1 |
| 20260503202016 | 69 | 232 | 4.0 | 13.0 | 0.00 | 0.00 | 0.00 | 24 | 1015.3 |
| 20260503201016 | 69 | 311 | 4.0 | 14.0 | 0.00 | 0.00 | 0.00 | 24 | 1015.5 |
| 20260503200016 | 69 | 247 | 2.0 | 5.0 | 0.00 | 0.00 | 0.00 | 26 | 1015.7 |
| 20260503195016 | 68 | 279 | 2.0 | 5.0 | 0.00 | 0.00 | 0.00 | 26 | 1015.8 |
| 20260503194018 | 68 | 247 | 3.0 | 11.0 | 0.00 | 0.00 | 0.00 | 26 | 1015.9 |
| 20260503193018 | 67 | 347 | 2.0 | 8.0 | 0.00 | 0.00 | 0.00 | 27 | 1016.0 |
| 20260503192017 | 67 | 291 | 3.0 | 9.0 | 0.00 | 0.00 | 0.00 | 26 | 1016.2 |
| 20260503191058 | 68 | 229 | 3.0 | 9.0 | 0.00 | 0.00 | 0.00 | 27 | 1016.5 |
| 20260503190017 | 67 | 329 | 2.0 | 8.0 | 0.00 | 0.00 | 0.00 | 29 | 1016.6 |
| 20260503185017 | 67 | 356 | 2.0 | 10.0 | 0.00 | 0.00 | 0.00 | 28 | 1016.6 |
| 20260503184017 | 66 | 249 | 2.0 | 4.0 | 0.00 | 0.00 | 0.00 | 28 | 1016.7 |
| 20260503183016 | 66 | 229 | 4.0 | 12.0 | 0.00 | 0.00 | 0.00 | 28 | 1017.0 |
| 20260503182017 | 65 | 321 | 2.0 | 6.0 | 0.00 | 0.00 | 0.00 | 31 | 1017.0 |
| 20260503181037 | 64 | 247 | 2.0 | 8.0 | 0.00 | 0.00 | 0.00 | 29 | 1017.0 |
| 20260503180016 | 64 | 324 | 3.0 | 10.0 | 0.00 | 0.00 | 0.00 | 30 | 1017.0 |
| 20260503175016 | 64 | 213 | 3.0 | 10.0 | 0.00 | 0.00 | 0.00 | 28 | 1017.0 |
| 20260503174017 | 64 | 248 | 3.0 | 8.0 | 0.00 | 0.00 | 0.00 | 30 | 1017.1 |
| 20260503173016 | 64 | 315 | 3.0 | 9.0 | 0.00 | 0.00 | 0.00 | 30 | 1017.2 |
| 20260503172016 | 63 | 258 | 3.0 | 9.0 | 0.00 | 0.00 | 0.00 | 31 | 1017.3 |
| 20260503171016 | 62 | 327 | 3.0 | 7.0 | 0.00 | 0.00 | 0.00 | 32 | 1017.3 |